Regional Weather Roundup
Issued by NWS

Home | Current Version | Previous Version | Text Only | Print | Product List | Glossary On
Versions: 1 2 3 4 5 6 7 8 9 10 11 12 13 14 15 16 17 18 19 20 21 22 23 24 25 26 27 28 29 30 31 32 33 34 35 36 37 38 39 40 41 42 43 44 45 46 47 48 49 50
000
ASUS45 KBOU 221207
RWRCO

WEATHER ROUNDUP FOR COLORADO
NATIONAL WEATHER SERVICE DENVER/BOULDER CO
500 AM MST MON DEC 22 2014

NOTE: "FAIR" INDICATES FEW OR NO CLOUDS BELOW 12000 FEET WITH NO
SIGNIFICANT WEATHER AND/OR OBSTRUCTIONS TO VISIBILITY.

COZ001>005-013-030-031-221300-
...NORTHWEST COLORADO...

CITY           SKY/WX    TMP DP  RH WIND       PRES   REMARKS
CRAIG          CLOUDY    33  25  72 W15       29.85F WCI  23
HAYDEN         CLOUDY    30  21  69 W13       29.83R WCI  20
MEEKER         CLOUDY    35  26  69 N3        29.87S
MOUNT WERNER   NOT AVBL
STEAMBOAT SPGS CLOUDY    30  23  76 W12       29.82S WCI  20
WALDEN         PTCLDY    23  12  63 W16G26    29.77S WCI  10
$$

COZ006>008-011-221300-
...WEST CENTRAL VALLEYS...

CITY           SKY/WX    TMP DP  RH WIND       PRES   REMARKS
GRAND JUNCTION CLOUDY    32  31  96 E7        29.88F WCI  26
MONTROSE       CLOUDY    32  30  92 SE6       29.91S WCI  26
EAGLE          CLOUDY    32  27  80 CALM      29.85S
RIFLE          CLOUDY    35  31  85 CALM      29.88S
DELTA          CLOUDY    35  33  93 CALM      29.88F
NUCLA          CLOUDY    34  32  93 CALM      29.97R
$$

COZ017>023-064>068-221300-
...SOUTHWEST COLORADO...

CITY           SKY/WX    TMP DP  RH WIND       PRES   REMARKS
DURANGO        CLOUDY    39  30  70 W18G29    29.85F
CORTEZ         CLOUDY    33  30  88 NE6       29.95S WCI  28
PAGOSA SPRINGS FLURRIES  31  31 100 CALM      29.86S
TELLURIDE      LGT SNOW  32  28  86 W22G35    29.93F WCI  19
WOLF CREEK PAS LGT SNOW  21  21 100 MISG      29.86F VSB 1
$$

COZ009-010-012-014-032>034-037-058>063-221300-
...CENTRAL COLORADO...

CITY           SKY/WX    TMP DP  RH WIND       PRES   REMARKS
ASPEN          CLOUDY    30  24  78 N10       29.82R WCI  21
BUENA VISTA    CLOUDY    30  24  80 NW6       29.74S WCI  24
COPPER MTN     CLOUDY    16  10  79 MISG      29.72S
BERTHOUD PASS  HVY SNOW   7   1  78 MISG      29.63R VSB<1/4
COTTONWOOD PAS LGT SNOW  28  23  80 SW14G25   29.74R WCI  17
GUNNISON       CLOUDY    32  28  86 N7        29.81F WCI  26
KREMMLING      CLOUDY    30  19  64 W9        29.82S WCI  22
LEADVILLE      LGT SNOW  17  15  92 N14G23    29.75R VSB 3/4 WCI   3
SALIDA         CLOUDY    33  30  90 NW12      29.82R WCI  24
SUNLIGHT       CLOUDY   N/A N/A N/A W7        29.85F
WILKERSON PASS CLOUDY    14  12  92 NW20G35   29.73S WCI  -3
$$

COZ069>075-221300-
...SAN LUIS VALLEY/SANGRE DE CRISTO MOUNTAINS...

CITY           SKY/WX    TMP DP  RH WIND       PRES   REMARKS
ALAMOSA        CLOUDY    25  24  96 SE6       29.77S WCI  18
LA VETA PASS   CLOUDY    27  23  86 SW8       29.75S WCI  18
SAGUACHE       LGT SNOW  32  32 100 N6        29.76S VSB 1   WCI  26
$$

COZ035-036-038>040-221300-
...NORTHERN COLORADO FRONT RANGE...

CITY           SKY/WX    TMP DP  RH WIND       PRES   REMARKS
DENVER INTL AP MOCLDY    30  23  75 NW9       29.73R WCI  22
DMNS CITY PARK   N/A     30  29  96 E2        29.74R
AURORA         PTCLDY    32  25  76 SW2       29.75R
FRONT RANGE AP MOCLDY    32  27  80 W6        29.74R WCI  26
ERIE MUNI ARPT   N/A     28  28  99 S5        29.74R WCI  23
BOULDER MUN AP MOCLDY    34  32  93 CALM      29.73S
CENTENNIAL     CLOUDY    31  28  89 CALM      29.74R
BROOMFIELD     PTCLDY    30  30 100 W5        29.74R WCI  25
FORT COLLINS   PTCLDY    30  19  64 NW8       29.74S WCI  23
LONGMONT       PTCLDY    31  28  89 CALM      29.75R
$$

COZ041-046-047-076>085-087-088-221300-
...PIKES PEAK/PALMER DIVIDE AND SOUTHERN FOOTHILLS...

CITY           SKY/WX    TMP DP  RH WIND       PRES   REMARKS
COLO. SPRINGS  CLOUDY    30  25  81 N12       29.73S WCI  20
A. F. ACADEMY  PTCLDY    26  25  96 NW3       29.73R
ELLICOTT       NOT AVBL
FALCON         PTCLDY    27  24  89 N10       29.73R WCI  17
FORT CARSON    PTCLDY    31  30  95 SW6       29.73R WCI  26
LIMON          MOCLDY    30  25  81 NW17      29.72S WCI  18
MONUMENT HILL  CLOUDY    27  25  93 NW5       29.71S WCI  21
TRINIDAD       LGT SNOW  32  30  92 SW6       29.79S FOG     WCI  26
$$

COZ042>045-048>051-090-091-221300-
...NORTHEAST COLORADO...

CITY           SKY/WX    TMP DP  RH WIND       PRES   REMARKS
GREELEY ARPT   PTCLDY    32  18  55 NW15      29.71S WCI  22
AKRON          MOCLDY    32  26  78 NW15      29.70R WCI  22
BURLINGTON     CLEAR     33  28  81 NW16      29.66R WCI  23
WRAY           MOCLDY    37  30  78 W16G24    29.65R
STERLING       MOCLDY    36  32  87 NW23G29   29.69S
HOLYOKE        MOCLDY    37  28  70 NW14G30   29.65R
FORT MORGAN    MOCLDY    32  24  72 N18       29.72R WCI  20
$$

COZ086-089-092>099-221300-
...SOUTHEAST COLORADO...

CITY           SKY/WX    TMP DP  RH WIND       PRES   REMARKS
PUEBLO         CLOUDY    37  30  75 NW3       29.74R
LA JUNTA       CLOUDY    38  28  67 W9        29.73S
LAMAR          CLOUDY    38  32  79 W12       29.70R
SPRINGFIELD      N/A     36  32  85 NW17      29.71R
$$


USA.gov is the U.S. government's official web portal to all federal, state and local government web resources and services.